Time,TemperatureF,DewpointF,PressureIn,WindDirection,WindDirectionDegrees,WindSpeedMPH,WindSpeedGustMPH,Humidity,HourlyPrecipIn,Conditions,Clouds,dailyrainin,SolarRadiationWatts/m^2,SoftwareType,DateUTC
2013-07-19 00:02:00,74.0,68.0,-100.00,NW,314,3.0,9.0,83,0.00,,,0.00,0.000000,,2013-07-19 04:02:00,
2013-07-19 00:12:00,74.0,68.0,-100.00,NW,314,3.0,9.0,83,0.00,,,0.00,0.000000,,2013-07-19 04:12:00,
2013-07-19 00:44:00,75.0,71.0,-100.00,SSE,158,8.0,12.0,88,0.00,,,0.00,0.000000,,2013-07-19 04:44:00,
2013-07-19 00:52:00,75.0,71.0,-100.00,SSE,158,8.0,12.0,88,0.00,,,0.00,0.000000,,2013-07-19 04:52:00,
2013-07-19 01:02:00,75.0,71.0,-100.00,SSE,158,8.0,12.0,88,0.00,,,0.00,0.000000,,2013-07-19 05:02:00,
2013-07-19 01:12:00,75.0,71.0,-100.00,SSE,158,8.0,12.0,88,0.00,,,0.00,0.000000,,2013-07-19 05:12:00,
2013-07-19 01:43:00,74.0,68.0,-100.00,South,174,5.0,12.0,82,0.00,,,-99.99,0.000000,,2013-07-19 05:43:00,
2013-07-19 01:53:00,74.0,68.0,-100.00,South,174,5.0,12.0,82,0.00,,,-99.99,0.000000,,2013-07-19 05:53:00,
2013-07-19 02:01:00,74.0,68.0,-100.00,South,174,5.0,12.0,82,0.00,,,-99.99,0.000000,,2013-07-19 06:01:00,
2013-07-19 02:11:00,74.0,68.0,-100.00,South,174,5.0,12.0,82,0.00,,,-99.99,0.000000,,2013-07-19 06:11:00,
2013-07-19 02:43:00,72.0,68.0,-100.00,SSW,197,3.0,7.0,86,0.00,,,0.00,0.000000,,2013-07-19 06:43:00,
2013-07-19 02:53:00,72.0,68.0,-100.00,SSW,197,3.0,7.0,86,0.00,,,0.00,0.000000,,2013-07-19 06:53:00,
2013-07-19 03:01:00,72.0,68.0,-100.00,SSW,197,3.0,7.0,86,0.00,,,0.00,0.000000,,2013-07-19 07:01:00,
2013-07-19 03:12:00,72.0,68.0,-100.00,SSW,197,3.0,7.0,86,0.00,,,0.00,0.000000,,2013-07-19 07:12:00,
2013-07-19 03:43:00,72.0,68.0,-100.00,South,174,5.0,10.0,88,0.00,,,-99.99,0.000000,,2013-07-19 07:43:00,
2013-07-19 03:53:00,72.0,68.0,-100.00,South,174,5.0,10.0,88,0.00,,,-99.99,0.000000,,2013-07-19 07:53:00,
2013-07-19 04:01:00,72.0,68.0,-100.00,South,174,5.0,10.0,88,0.00,,,-99.99,0.000000,,2013-07-19 08:01:00,
2013-07-19 04:12:00,72.0,68.0,-100.00,South,174,5.0,10.0,88,0.00,,,-99.99,0.000000,,2013-07-19 08:12:00,
2013-07-19 04:43:00,71.0,68.0,-100.00,South,185,5.0,9.0,91,0.00,,,-99.99,0.000000,,2013-07-19 08:43:00,
2013-07-19 04:52:00,71.0,68.0,-100.00,South,185,5.0,9.0,91,0.00,,,-99.99,0.000000,,2013-07-19 08:52:00,
2013-07-19 05:02:00,71.0,68.0,-100.00,South,185,5.0,9.0,91,0.00,,,-99.99,0.000000,,2013-07-19 09:02:00,
2013-07-19 05:11:00,71.0,68.0,-100.00,South,185,5.0,9.0,91,0.00,,,-99.99,0.000000,,2013-07-19 09:11:00,
2013-07-19 05:43:00,71.0,68.0,-100.00,South,183,5.0,8.0,90,0.00,,,0.00,0.000000,,2013-07-19 09:43:00,
2013-07-19 05:52:00,71.0,68.0,-100.00,South,183,5.0,8.0,90,0.00,,,0.00,0.000000,,2013-07-19 09:52:00,
2013-07-19 06:01:00,71.0,68.0,-100.00,South,183,5.0,8.0,90,0.00,,,0.00,0.000000,,2013-07-19 10:01:00,
2013-07-19 06:11:00,71.0,68.0,-100.00,South,183,5.0,8.0,90,0.00,,,0.00,0.000000,,2013-07-19 10:11:00,
2013-07-19 06:43:00,70.0,68.0,-100.00,South,172,6.0,10.0,93,0.00,,,0.00,1.000000,,2013-07-19 10:43:00,
2013-07-19 06:52:00,70.0,68.0,-100.00,South,172,6.0,10.0,93,0.00,,,0.00,1.000000,,2013-07-19 10:52:00,
2013-07-19 07:02:00,70.0,68.0,-100.00,South,172,6.0,10.0,93,0.00,,,0.00,1.000000,,2013-07-19 11:02:00,
2013-07-19 07:12:00,70.0,68.0,-100.00,South,172,6.0,10.0,93,0.00,,,0.00,1.000000,,2013-07-19 11:12:00,
2013-07-19 07:43:00,71.0,69.0,-100.00,South,178,5.0,9.0,92,0.00,,,0.00,36.000000,,2013-07-19 11:43:00,
2013-07-19 07:52:00,71.0,69.0,-100.00,South,178,5.0,9.0,92,0.00,,,0.00,36.000000,,2013-07-19 11:52:00,
2013-07-19 08:02:00,71.0,69.0,-100.00,South,178,5.0,9.0,92,0.00,,,0.00,36.000000,,2013-07-19 12:02:00,
2013-07-19 08:12:00,71.0,69.0,-100.00,South,178,5.0,9.0,92,0.00,,,0.00,36.000000,,2013-07-19 12:12:00,
2013-07-19 08:44:00,75.0,71.0,-100.00,South,186,6.0,9.0,86,0.00,,,0.00,153.000000,,2013-07-19 12:44:00,
2013-07-19 08:53:00,75.0,71.0,-100.00,South,186,6.0,9.0,86,0.00,,,0.00,153.000000,,2013-07-19 12:53:00,
2013-07-19 09:02:00,75.0,71.0,-100.00,South,186,6.0,9.0,86,0.00,,,0.00,153.000000,,2013-07-19 13:02:00,
2013-07-19 09:12:00,75.0,71.0,-100.00,South,186,6.0,9.0,86,0.00,,,0.00,153.000000,,2013-07-19 13:12:00,
2013-07-19 09:43:00,80.0,73.0,-100.00,SSW,195,4.0,10.0,79,0.00,,,0.00,312.000000,,2013-07-19 13:43:00,
2013-07-19 09:53:00,80.0,73.0,-100.00,SSW,195,4.0,10.0,79,0.00,,,0.00,312.000000,,2013-07-19 13:53:00,
2013-07-19 10:02:00,80.0,73.0,-100.00,SSW,195,4.0,10.0,79,0.00,,,0.00,312.000000,,2013-07-19 14:02:00,
2013-07-19 10:12:00,80.0,73.0,-100.00,SSW,195,4.0,10.0,79,0.00,,,0.00,312.000000,,2013-07-19 14:12:00,
2013-07-19 10:43:00,82.0,73.0,-100.00,SW,228,6.0,11.0,74,0.00,,,0.00,510.000000,,2013-07-19 14:43:00,
2013-07-19 10:53:00,82.0,73.0,-100.00,SW,228,6.0,11.0,74,0.00,,,0.00,510.000000,,2013-07-19 14:53:00,
2013-07-19 11:02:00,82.0,73.0,-100.00,SW,228,6.0,11.0,74,0.00,,,0.00,510.000000,,2013-07-19 15:02:00,
2013-07-19 11:11:00,82.0,73.0,-100.00,SW,228,6.0,11.0,74,0.00,,,0.00,510.000000,,2013-07-19 15:11:00,
2013-07-19 11:43:00,83.0,73.0,-100.00,WSW,247,6.0,13.0,72,0.00,,,0.00,511.000000,,2013-07-19 15:43:00,
2013-07-19 11:52:00,83.0,73.0,-100.00,WSW,247,6.0,13.0,72,0.00,,,0.00,511.000000,,2013-07-19 15:52:00,
2013-07-19 12:01:00,83.0,73.0,-100.00,WSW,247,6.0,13.0,72,0.00,,,0.00,511.000000,,2013-07-19 16:01:00,
2013-07-19 12:11:00,83.0,73.0,-100.00,WSW,247,6.0,13.0,72,0.00,,,0.00,511.000000,,2013-07-19 16:11:00,
2013-07-19 12:43:00,85.0,73.0,-100.00,WSW,252,6.0,13.0,67,0.00,,,0.00,665.000000,,2013-07-19 16:43:00,
2013-07-19 12:53:00,85.0,73.0,-100.00,WSW,252,6.0,13.0,67,0.00,,,0.00,665.000000,,2013-07-19 16:53:00,
2013-07-19 13:02:00,85.0,73.0,-100.00,WSW,252,6.0,13.0,67,0.00,,,0.00,665.000000,,2013-07-19 17:02:00,
2013-07-19 13:12:00,85.0,73.0,-100.00,WSW,252,6.0,13.0,67,0.00,,,0.00,665.000000,,2013-07-19 17:12:00,
2013-07-19 13:43:00,86.0,73.0,-100.00,SW,229,7.0,11.0,65,0.00,,,0.00,645.000000,,2013-07-19 17:43:00,
2013-07-19 13:52:00,86.0,73.0,-100.00,SW,229,7.0,11.0,65,0.00,,,0.00,645.000000,,2013-07-19 17:52:00,
2013-07-19 14:01:00,86.0,73.0,-100.00,SW,229,7.0,11.0,65,0.00,,,0.00,645.000000,,2013-07-19 18:01:00,
2013-07-19 14:11:00,86.0,73.0,-100.00,SW,229,7.0,11.0,65,0.00,,,0.00,645.000000,,2013-07-19 18:11:00,
2013-07-19 14:43:00,86.0,73.0,-100.00,SW,229,7.0,13.0,66,0.00,,,0.00,570.000000,,2013-07-19 18:43:00,
2013-07-19 14:52:00,86.0,73.0,-100.00,SW,229,7.0,13.0,66,0.00,,,0.00,570.000000,,2013-07-19 18:52:00,
2013-07-19 15:01:00,86.0,73.0,-100.00,SW,229,7.0,13.0,66,0.00,,,0.00,570.000000,,2013-07-19 19:01:00,
2013-07-19 15:11:00,86.0,73.0,-100.00,SW,229,7.0,13.0,66,0.00,,,0.00,570.000000,,2013-07-19 19:11:00,
2013-07-19 15:43:00,73.0,63.0,-100.00,WSW,253,5.0,18.0,70,0.03,,,0.03,182.000000,,2013-07-19 19:43:00,
2013-07-19 15:52:00,73.0,63.0,-100.00,WSW,253,5.0,18.0,70,0.03,,,0.03,182.000000,,2013-07-19 19:52:00,
2013-07-19 16:02:00,73.0,63.0,-100.00,WSW,253,5.0,18.0,70,0.03,,,0.03,182.000000,,2013-07-19 20:02:00,
2013-07-19 16:11:00,73.0,63.0,-100.00,WSW,253,5.0,18.0,70,0.03,,,0.03,182.000000,,2013-07-19 20:11:00,
2013-07-19 16:43:00,73.0,71.0,-100.00,ESE,123,2.0,5.0,93,0.01,,,0.04,75.000000,,2013-07-19 20:43:00,
2013-07-19 16:52:00,73.0,71.0,-100.00,ESE,123,2.0,5.0,93,0.01,,,0.04,75.000000,,2013-07-19 20:52:00,
2013-07-19 17:01:00,73.0,71.0,-100.00,ESE,123,2.0,5.0,93,0.01,,,0.04,75.000000,,2013-07-19 21:01:00,
2013-07-19 17:11:00,73.0,71.0,-100.00,ESE,123,2.0,5.0,93,0.01,,,0.04,75.000000,,2013-07-19 21:11:00,
2013-07-19 17:43:00,75.0,71.0,-100.00,South,188,6.0,9.0,88,0.00,,,0.04,233.000000,,2013-07-19 21:43:00,
2013-07-19 17:52:00,75.0,71.0,-100.00,South,188,6.0,9.0,88,0.00,,,0.04,233.000000,,2013-07-19 21:52:00,
2013-07-19 18:01:00,75.0,71.0,-100.00,South,188,6.0,9.0,88,0.00,,,0.04,233.000000,,2013-07-19 22:01:00,
2013-07-19 18:11:00,75.0,71.0,-100.00,South,188,6.0,9.0,88,0.00,,,0.04,233.000000,,2013-07-19 22:11:00,
2013-07-19 18:43:00,75.0,69.0,-100.00,WSW,253,3.0,9.0,81,0.00,,,0.04,173.000000,,2013-07-19 22:43:00,
2013-07-19 18:52:00,75.0,69.0,-100.00,WSW,253,3.0,9.0,81,0.00,,,0.04,173.000000,,2013-07-19 22:52:00,
2013-07-19 19:02:00,75.0,69.0,-100.00,WSW,253,3.0,9.0,81,0.00,,,0.04,173.000000,,2013-07-19 23:02:00,
2013-07-19 19:11:00,75.0,69.0,-100.00,WSW,253,3.0,9.0,81,0.00,,,0.04,173.000000,,2013-07-19 23:11:00,
2013-07-19 19:43:00,73.0,69.0,-100.00,SW,216,2.0,7.0,87,0.00,,,0.04,45.000000,,2013-07-19 23:43:00,
2013-07-19 19:52:00,73.0,69.0,-100.00,SW,216,2.0,7.0,87,0.00,,,0.04,45.000000,,2013-07-19 23:52:00,
2013-07-19 20:01:00,73.0,69.0,-100.00,SW,216,2.0,7.0,87,0.00,,,0.04,45.000000,,2013-07-20 00:01:00,
2013-07-19 20:11:00,73.0,69.0,-100.00,SW,216,2.0,7.0,87,0.00,,,0.04,45.000000,,2013-07-20 00:11:00,
2013-07-19 20:43:00,72.0,70.0,-100.00,SE,146,3.0,5.0,94,0.00,,,0.04,23.000000,,2013-07-20 00:43:00,
2013-07-19 20:52:00,72.0,70.0,-100.00,SE,146,3.0,5.0,94,0.00,,,0.04,23.000000,,2013-07-20 00:52:00,
2013-07-19 21:01:00,72.0,70.0,-100.00,SE,146,3.0,5.0,94,0.00,,,0.04,23.000000,,2013-07-20 01:01:00,
2013-07-19 21:11:00,72.0,70.0,-100.00,SE,146,3.0,5.0,94,0.00,,,0.04,23.000000,,2013-07-20 01:11:00,
2013-07-19 21:52:00,74.0,70.0,-100.00,SSW,206,6.0,10.0,87,0.00,,,0.04,3.000000,,2013-07-20 01:52:00,
2013-07-19 22:02:00,74.0,70.0,-100.00,SSW,206,6.0,10.0,87,0.00,,,0.04,3.000000,,2013-07-20 02:02:00,
2013-07-19 22:11:00,74.0,70.0,-100.00,SSW,206,6.0,10.0,87,0.00,,,0.04,3.000000,,2013-07-20 02:11:00,
2013-07-19 22:44:00,74.0,70.0,-100.00,South,172,5.0,8.0,88,0.00,,,0.04,0.000000,,2013-07-20 02:44:00,
2013-07-19 22:52:00,74.0,70.0,-100.00,South,172,5.0,8.0,88,0.00,,,0.04,0.000000,,2013-07-20 02:52:00,
2013-07-19 23:02:00,74.0,70.0,-100.00,South,172,5.0,8.0,88,0.00,,,0.04,0.000000,,2013-07-20 03:02:00,
2013-07-19 23:12:00,74.0,70.0,-100.00,South,172,5.0,8.0,88,0.00,,,0.04,0.000000,,2013-07-20 03:12:00,
2013-07-19 23:44:00,73.0,69.0,-100.00,WNW,291,2.0,9.0,86,0.00,,,0.04,0.000000,,2013-07-20 03:44:00,
2013-07-19 23:53:00,73.0,69.0,-100.00,WNW,291,2.0,9.0,86,0.00,,,0.04,0.000000,,2013-07-20 03:53:00,